MM1PTT-13 Weather Reports


Display with metric or nautical units.
time (UTC)temp
F
wind
direction
speed
MPH
gust
MPH
rain 1hr
in
rain 24hr
in
rain mn
in
humidity
%
barometer
mb
20260503045542 47 59 7.0 9.0 0.01 0.00 0.05 93 984.1
20260503045042 47 43 8.0 10.0 0.01 0.00 0.05 92 983.7
20260503044542 47 42 5.0 8.0 0.01 0.00 0.05 92 984.1
20260503044042 47 92 6.0 8.0 0.01 0.00 0.05 92 983.7
20260503043542 47 42 7.0 8.0 0.01 0.00 0.05 92 983.7
20260503043042 47 47 6.0 8.0 0.01 0.00 0.05 92 984.1
20260503042542 47 19 5.0 6.0 0.01 0.00 0.04 92 984.1
20260503042043 47 69 5.0 7.0 0.01 0.00 0.04 92 984.1
20260503041543 47 44 9.0 11.0 0.01 0.00 0.04 92 984.1
20260503041042 47 8 5.0 6.0 0.01 0.00 0.04 92 984.1
20260503040543 47 80 5.0 7.0 0.01 0.00 0.04 92 984.1
20260503040042 47 174 3.0 5.0 0.01 0.00 0.04 92 984.1
20260503035543 47 42 9.0 10.0 0.01 0.00 0.04 92 984.1
20260503035042 47 32 5.0 7.0 0.01 0.00 0.04 92 984.1
20260503034542 47 64 10.0 13.0 0.01 0.00 0.04 92 983.7
20260503034043 47 9 6.0 8.0 0.01 0.00 0.04 92 984.1
20260503033542 47 7 7.0 8.0 0.01 0.00 0.02 92 984.1
20260503033042 47 44 8.0 11.0 0.01 0.00 0.02 92 984.1
20260503032546 47 112 6.0 7.0 0.01 0.00 0.02 92 984.1
20260503032042 47 70 8.0 10.0 0.00 0.00 0.02 92 984.1
20260503031542 47 45 7.0 8.0 0.00 0.00 0.02 92 984.1
20260503031042 47 58 5.0 7.0 0.00 0.00 0.01 92 984.1
20260503030542 47 80 8.0 9.0 0.00 0.00 0.01 92 984.1
20260503030042 47 69 8.0 10.0 0.00 0.00 0.01 92 984.1
20260503025542 47 65 6.0 8.0 0.00 0.00 0.01 92 984.1
20260503025042 48 106 5.0 6.0 0.00 0.00 0.01 92 984.1
20260503024543 47 34 10.0 13.0 0.00 0.00 0.00 92 984.1
20260503024043 48 69 4.0 5.0 0.00 0.00 0.00 92 984.1
20260503023542 48 98 5.0 7.0 0.00 0.00 0.00 92 983.7
20260503023042 48 49 6.0 10.0 0.00 0.00 0.00 92 984.1
20260503022542 48 133 6.0 8.0 0.00 0.00 0.00 92 984.1
20260503022042 48 47 4.0 5.0 0.00 0.00 0.00 92 984.1
20260503021543 48 80 5.0 7.0 0.00 0.00 0.00 92 984.1
20260503021042 48 18 4.0 5.0 0.00 0.00 0.00 92 984.1
20260503020542 48 77 7.0 7.0 0.00 0.00 0.00 92 984.1
20260503020042 48 46 5.0 5.0 0.00 0.00 0.00 92 984.1
20260503015543 48 41 8.0 10.0 0.00 0.00 0.00 92 984.1
20260503015043 48 37 5.0 6.0 0.00 0.00 0.00 92 984.1
20260503014543 48 60 9.0 11.0 0.00 0.00 0.00 92 984.1
20260503014042 48 53 7.0 8.0 0.00 0.00 0.00 92 984.1
20260503013542 48 62 9.0 12.0 0.00 0.00 0.00 92 984.1
20260503013042 48 16 6.0 9.0 0.00 0.00 0.00 91 984.1
20260503012543 48 70 8.0 10.0 0.00 0.00 0.00 91 984.1
20260503012042 49 44 6.0 8.0 0.00 0.00 0.00 91 984.4
20260503011542 49 42 7.0 9.0 0.00 0.00 0.00 91 984.1
20260503011042 49 55 3.0 4.0 0.00 0.00 0.00 90 984.4
20260503010542 49 111 6.0 11.0 0.00 0.00 0.00 90 984.1
20260503010042 49 31 4.0 5.0 0.00 0.00 0.00 90 984.4
20260503005542 49 100 2.0 5.0 0.00 0.00 0.00 90 984.4
20260503005042 49 39 6.0 8.0 0.00 0.00 0.00 90 984.4
20260503004542 49 1 6.0 9.0 0.00 0.00 0.00 90 984.4
20260503004042 49 50 11.0 13.0 0.00 0.00 0.00 90 984.4
20260503003543 49 87 7.0 11.0 0.00 0.00 0.00 90 984.4
20260503003042 49 25 7.0 10.0 0.00 0.00 0.00 90 984.4
20260503002543 49 51 6.0 8.0 0.00 0.00 0.00 90 984.4
20260503002042 49 55 10.0 13.0 0.00 0.00 0.00 90 984.8
20260503001543 49 34 4.0 6.0 0.00 0.00 0.00 90 984.4
20260503001042 49 15 9.0 11.0 0.00 0.00 0.00 90 984.8
20260503000542 49 55 6.0 8.0 0.00 0.00 0.00 91 984.4
20260503000043 49 21 11.0 15.0 0.00 0.00 0.00 90 984.8
20260502235543 49 33 5.0 7.0 0.00 0.00 0.00 90 984.8
20260502235043 49 353 7.0 7.0 0.00 0.00 0.00 90 984.8
20260502234542 49 43 6.0 8.0 0.00 0.00 0.00 90 984.8
20260502234042 49 1 3.0 6.0 0.00 0.00 0.00 90 984.8
20260502233542 49 93 7.0 11.0 0.00 0.00 0.00 89 984.8
20260502233043 49 23 6.0 7.0 0.00 0.00 0.00 89 984.8
20260502232543 49 46 5.0 7.0 0.00 0.00 0.00 89 984.8
20260502232042 49 85 5.0 7.0 0.00 0.00 0.00 90 984.8
20260502231542 49 46 8.0 13.0 0.00 0.00 0.00 89 984.8
20260502231042 49 344 3.0 5.0 0.00 0.00 0.00 90 984.8
20260502230542 49 160 3.0 6.0 0.00 0.00 0.00 90 984.8
20260502230042 49 37 7.0 11.0 0.00 0.00 0.04 90 984.8
20260502225542 49 43 5.0 7.0 0.00 0.00 0.04 89 984.8
20260502225042 49 37 4.0 6.0 0.00 0.00 0.04 89 984.8
20260502224543 49 44 5.0 8.0 0.00 0.00 0.04 89 984.8
20260502224042 49 5 3.0 6.0 0.00 0.00 0.04 89 984.8
20260502223542 49 55 5.0 7.0 0.00 0.00 0.04 89 984.8
20260502223043 49 47 5.0 7.0 0.00 0.00 0.04 89 984.8
20260502222542 49 62 5.0 7.0 0.00 0.00 0.04 89 984.8
20260502222043 49 106 3.0 5.0 0.00 0.00 0.04 88 984.8
20260502221542 49 128 2.0 2.0 0.00 0.00 0.04 88 984.8
20260502221042 49 69 1.0 2.0 0.00 0.00 0.04 88 984.8
20260502220542 49 60 8.0 10.0 0.00 0.00 0.04 88 984.8
20260502220042 49 119 3.0 7.0 0.00 0.00 0.04 88 984.8
20260502215546 49 132 3.0 5.0 0.00 0.00 0.04 88 984.8
20260502215042 49 48 6.0 8.0 0.00 0.00 0.04 87 984.8
20260502214542 49 118 4.0 10.0 0.00 0.00 0.04 86 984.8
20260502214044 49 111 6.0 10.0 0.00 0.00 0.04 86 984.8
20260502213542 49 52 3.0 5.0 0.00 0.00 0.04 85 984.8
20260502213042 49 97 3.0 4.0 0.00 0.00 0.04 85 984.8
20260502212542 49 79 6.0 7.0 0.00 0.00 0.04 85 984.4
20260502212042 49 121 5.0 7.0 0.00 0.00 0.04 84 984.8
20260502211542 49 60 6.0 7.0 0.00 0.00 0.04 84 984.4
20260502211042 50 45 9.0 11.0 0.00 0.00 0.04 83 984.4
20260502204043 51 95 5.0 7.0 0.00 0.00 0.04 86 984.4
20260502201042 55 50 3.0 4.0 0.00 0.00 0.02 90 984.1
20260502200043 55 42 2.0 2.0 0.00 0.00 0.02 89 984.1
20260502194543 55 78 1.0 1.0 0.00 0.00 0.02 88 983.7
20260502194042 55 61 0.0 1.0 0.00 0.00 0.02 88 983.7
20260502192744 56 50 0.0 0.0 0.00 0.00 0.02 87 983.7
20260502191543 56 102 0.0 1.0 0.00 0.00 0.02 86 983.7
20260502191043 56 65 1.0 2.0 0.00 0.00 0.02 85 983.7
20260502185542 56 80 1.0 2.0 0.00 0.00 0.02 84 983.7
20260502185042 56 34 1.0 1.0 0.00 0.00 0.02 86 983.4
20260502184543 56 55 1.0 2.0 0.00 0.00 0.02 86 983.7
20260502183543 55 24 2.0 2.0 0.00 0.00 0.02 85 983.4
20260502183042 55 25 1.0 2.0 0.00 0.00 0.02 87 983.4
20260502182544 56 24 1.0 2.0 0.00 0.00 0.02 88 983.4
20260502180544 55 31 0.0 1.0 0.00 0.00 0.02 87 983.7
20260502164042 58 61 4.0 5.0 0.00 0.00 0.00 76 983.7
20260502163542 58 315 1.0 2.0 0.00 0.00 0.00 77 983.7
20260502163042 58 40 3.0 4.0 0.00 0.00 0.00 78 983.7
20260502162542 58 345 3.0 4.0 0.00 0.00 0.00 75 983.7
20260502162042 58 39 3.0 5.0 0.00 0.00 0.00 75 983.7
20260502161542 58 36 3.0 4.0 0.00 0.00 0.00 74 983.7
20260502160542 59 355 3.0 4.0 0.00 0.00 0.00 72 983.7
20260502152042 60 266 1.0 2.0 0.00 0.00 0.00 70 984.1
20260502151543 60 92 0.0 1.0 0.00 0.00 0.00 70 983.7
20260502151042 60 122 1.0 2.0 0.00 0.00 0.00 70 984.1
20260502150543 59 165 1.0 2.0 0.00 0.00 0.00 71 984.1
20260502130543 59 322 2.0 4.0 0.00 0.00 0.00 75 984.8
20260502123543 60 294 4.0 5.0 0.00 0.00 0.00 73 985.1
20260502123042 60 231 3.0 4.0 0.00 0.00 0.00 74 984.8
20260502122542 59 266 3.0 5.0 0.00 0.00 0.00 75 984.8
20260502122042 59 278 5.0 6.0 0.00 0.00 0.00 75 984.8
20260502121544 59 16 3.0 5.0 0.00 0.00 0.00 75 984.8
20260502121042 58 308 2.0 2.0 0.00 0.00 0.00 76 984.8
20260502120542 58 216 2.0 3.0 0.00 0.00 0.00 77 985.1
20260502115543 58 250 3.0 5.0 0.00 0.00 0.00 76 985.1
20260502115042 58 303 2.0 6.0 0.00 0.00 0.00 76 984.8
20260502114543 58 201 1.0 4.0 0.00 0.00 0.00 75 985.4
20260502114042 58 272 3.0 3.0 0.00 0.00 0.00 75 985.1
20260502113542 59 8 1.0 2.0 0.00 0.00 0.00 76 985.1
20260502113043 58 22 2.0 2.0 0.00 0.00 0.00 75 985.1
20260502112542 58 299 1.0 2.0 0.00 0.00 0.00 76 985.1
20260502112043 57 193 2.0 2.0 0.00 0.00 0.00 77 985.1
20260502111542 58 212 4.0 5.0 0.00 0.00 0.00 77 985.4
20260502111043 57 161 0.0 1.0 0.00 0.00 0.00 79 985.4
20260502110542 57 130 1.0 2.0 0.00 0.00 0.00 79 985.1
20260502110046 57 91 3.0 5.0 0.00 0.00 0.00 79 985.1
20260502105543 57 315 0.0 1.0 0.00 0.00 0.00 78 985.4
20260502105043 57 15 0.0 1.0 0.00 0.00 0.00 79 985.4
20260502104543 57 324 3.0 4.0 0.00 0.00 0.00 78 985.4
20260502104042 57 201 1.0 2.0 0.00 0.00 0.00 80 985.4
20260502103542 56 157 1.0 3.0 0.00 0.00 0.00 81 985.4
20260502103042 56 333 2.0 3.0 0.00 0.00 0.00 81 985.4
20260502102546 56 307 2.0 2.0 0.00 0.00 0.00 82 985.4
20260502102042 56 326 3.0 4.0 0.00 0.00 0.00 81 985.4
20260502101542 56 321 4.0 6.0 0.00 0.00 0.00 80 985.4
20260502101042 56 297 2.0 2.0 0.00 0.00 0.00 82 985.4
20260502100542 55 268 1.0 2.0 0.00 0.00 0.00 83 985.4
20260502091042 54 221 0.0 2.0 0.00 0.00 0.00 85 985.4
20260502090547 54 30 0.0 1.0 0.00 0.00 0.00 86 985.4
20260502071043 53 199 1.0 2.0 0.00 0.00 0.00 86 985.1
20260502070542 53 278 2.0 3.0 0.00 0.00 0.00 85 985.1
20260502070042 53 160 1.0 2.0 0.00 0.00 0.00 86 985.1
20260502065542 53 285 0.0 0.0 0.00 0.00 0.00 86 985.1
20260502065043 52 297 0.0 1.0 0.00 0.00 0.00 86 985.1
20260502064542 52 281 0.0 1.0 0.00 0.00 0.00 86 985.4
20260502064042 52 345 0.0 1.0 0.00 0.00 0.00 86 985.1
20260502063544 52 285 0.0 1.0 0.00 0.00 0.00 87 985.1
20260502063042 52 301 1.0 2.0 0.00 0.00 0.00 87 985.4
20260502062542 52 7 0.0 1.0 0.00 0.00 0.00 87 985.1
20260502062042 52 322 2.0 2.0 0.00 0.00 0.00 87 985.1
20260502061542 52 1 0.0 1.0 0.00 0.00 0.00 87 984.8
20260502061043 52 337 2.0 2.0 0.00 0.00 0.00 87 985.1
20260502060542 52 329 0.0 1.0 0.00 0.00 0.00 87 985.1
20260502060042 52 337 0.0 1.0 0.00 0.00 0.00 87 985.1
20260502055542 52 281 1.0 1.0 0.00 0.00 0.00 87 985.1
20260502055045 52 70 0.0 0.0 0.00 0.00 0.00 87 985.1
20260502054543 52 65 0.0 0.0 0.00 0.00 0.00 87 985.1
20260502054042 52 325 1.0 2.0 0.00 0.00 0.00 87 985.1
20260502053542 52 334 0.0 1.0 0.00 0.00 0.00 87 985.1
20260502053042 52 323 0.0 1.0 0.00 0.00 0.00 87 985.1
20260502052543 52 21 0.0 0.0 0.00 0.00 0.00 88 985.1
20260502052042 51 50 0.0 0.0 0.00 0.00 0.00 88 985.1
20260502051543 51 32 0.0 1.0 0.00 0.00 0.00 88 985.1
20260502051042 51 352 0.0 0.0 0.00 0.00 0.00 88 985.1
20260502050542 51 96 0.0 0.0 0.00 0.00 0.00 88 984.8
20260502050043 51 51 0.0 0.0 0.00 0.00 0.00 88 985.1